Location: *
(42.0175°N, 9.4056°E)
Time: 20:32:36
(UTC+00:00)

Resurs 01 Rocket - Pass Details

Date: 25 August 2019
Orbit: 635 x 644 km, 98.0° (Epoch: 19 October)

Event Time Altitude Azimuth Distance (km) Brightness Sun altitude
Exits shadow 19:23:25 19° 142° (SE) 1,503 3.0 -13.8°
Maximum altitude 19:26:20 51° 73° (ENE) 801 1.8 -14.3°
Drops below altitude 10° 19:30:38 10° 357° (N) 2,032 4.6 -15.0°
Sets 19:32:53 0° 353° (N) 2,947 5.6 -15.3°
